This demonstration page uses our WeatherBlox Daily Observations layout. Learn more.

Left ArrowRight Arrow

Hourly Observations for July 9, 2022

Temp ( °F °C ) Dew Point ( °F °C ) Humidity (%) Winds ( mph kmh ) Pressure ( in mb ) Visibility ( mi km ) Precip ( " mm )
12:59 am 00:59 Mostly Cloudy 77 25 72 22.2 85 85 SE 6 9 29.98 1015 10 16 0.00 0.00
1:59 am 01:59 Mostly Cloudy 77 25 75 23.9 94 94 Calm 29.96 1015 10 16 0.00 0.00
2:59 am 02:59 Mostly Cloudy 77 25 75 23.9 94 94 SE 3 6 29.94 1014 10 16 0.00 0.00
3:59 am 03:59 Cloudy 77 25 76 24.4 96 96 Calm 29.93 1014 10 16 0.00 0.00
4:59 am 04:59 Cloudy 78 25.6 76 24.4 93 93 Calm 29.93 1013 10 16 0.00 0.00
5:59 am 05:59 Cloudy 78 25.6 76 24.4 93 93 Calm 29.93 1014 8 13 0.00 0.00
6:25 am 06:25 Cloudy with Heavy Rain 78 25.6 76 24.4 93 93 Calm 29.94 1014 2 2 0.08 2.03
6:27 am 06:27 Cloudy with Heavy Rain 78 25.6 76 24.4 93 93 Calm 29.94 1014 1 2 0.10 2.54
6:35 am 06:35 Cloudy with Light Rain 78 25.6 76 24.4 93 93 Calm 29.94 1014 3 5 0.10 2.54
6:42 am 06:42 Cloudy with Light Rain 78 25.6 76 24.4 93 93 VRB 3 6 29.94 1014 4 6 0.11 2.79
6:59 am 06:59 Cloudy with Drizzle 79 26.1 75 23.9 88 88 Calm 29.93 1014 5 8 0.11 2.79
7:59 am 07:59 Cloudy 79 26.1 75 23.9 88 88 SSW 5 7 29.95 1014 8 13 0.00 0.00
8:07 am 08:07 Cloudy 79 26.1 75 23.9 88 88 SW 3 6 29.95 1014 8 13 0.00 0.00
8:25 am 08:25 Cloudy 79 26.1 75 23.9 88 88 SSW 6 9 29.94 1014 8 13 0.00 0.00
8:59 am 08:59 Mostly Cloudy 79 26.1 76 24.4 90 90 SSW 3 6 29.95 1014 9 14 0.00 0.00
9:59 am 09:59 Cloudy 81 27.2 74 23.3 79 79 SSW 3 6 29.94 1014 9 14 0.00 0.00
10:59 am 10:59 Mostly Cloudy 82 27.8 74 23.3 77 77 S 3 6 29.93 1013 10 16 0.00 0.00
11:59 am 11:59 Cloudy 82 27.8 74 23.3 77 77 E 7 11 29.93 1014 9 14 0.00 0.00
12:59 pm 12:59 Cloudy 82 27.8 76 24.4 82 82 ENE 7 11 29.91 1013 9 14 0.00 0.00
1:30 pm 13:30 Cloudy with Thunderstorms 82 27.8 75 23.9 79 79 SSE 5 7 29.91 1013 6 10 0.01 0.25
1:38 pm 13:38 Cloudy with Thunderstorms 82 27.8 75 23.9 79 79 Calm 29.91 1013 2 3 0.06 1.52
1:48 pm 13:48 Cloudy with Thunderstorms 81 27.2 76 24.4 85 85 NNE 17 28 29.93 1014 1 2 0.28 7.11
1:50 pm 13:50 Cloudy with Thunderstorms 81 27.2 76 24.4 85 85 NNE 18 30 29.94 1014 1 2 0.36 9.14
1:54 pm 13:54 Windy with Storms Likely 75 24 75 24 100 100 NNE 20 31 29.94 1014 1 1 0.65 16.51
1:57 pm 13:57 Windy with Storms Likely 75 24 75 24 100 100 NE 22 35 29.92 1013 1 1 0.84 21.34
1:59 pm 13:59 Windy with Storms Likely 73 22.8 71 21.7 94 94 NE 20 31 29.92 1013 1 1 0.96 24.38
2:05 pm 14:05 Cloudy with Thunderstorms 73 22.8 71 21.7 94 94 NE 17 28 29.92 1013 1 1 0.16 4.06
2:12 pm 14:12 Cloudy with Strong Thunderstorms 73 22.8 71 21.7 94 94 NE 14 22 29.92 1013 1 2 0.20 5.08
2:15 pm 14:15 Cloudy with Thunderstorms 73 22.8 71 21.7 94 94 ENE 13 20 29.92 1013 2 2 0.20 5.08
2:17 pm 14:17 Cloudy with Thunderstorms 73 22.8 71 21.7 94 94 ENE 12 19 29.92 1013 2 3 0.20 5.08
2:25 pm 14:25 Cloudy with Thunderstorms 73 22.8 71 21.7 94 94 ENE 9 15 29.92 1013 4 6 0.22 5.59
2:41 pm 14:41 Cloudy with Thunderstorms 73 22.8 72 22.2 96 96 E 7 11 29.92 1013 4 6 0.25 6.35
2:59 pm 14:59 Cloudy with Light Rain 73 22.8 72 22.2 96 96 E 9 15 29.92 1013 5 8 0.27 6.86
3:59 pm 15:59 Mostly Cloudy 77 25 74 23.3 90 90 S 5 7 29.93 1014 10 16 0.00 0.00
4:59 pm 16:59 Cloudy 75 23.9 73 22.8 94 94 E 13 20 29.93 1014 8 13 0.00 0.00
5:59 pm 17:59 Cloudy 73 22.8 70 21.1 90 90 ENE 14 22 29.94 1014 9 14 0.00 0.00
6:59 pm 18:59 Cloudy 73 22.8 70 21.1 90 90 NE 16 26 29.95 1014 10 16 0.00 0.00
7:47 pm 19:47 Cloudy 73 22.8 70 21.1 90 90 NE 14 22 29.97 1015 8 13 0.00 0.00
7:59 pm 19:59 Cloudy 73 22.8 70 21.1 90 90 NE 15 24 29.98 1015 9 14 0.00 0.00
8:23 pm 20:23 Cloudy 73 22.8 70 21.1 90 90 NE 18 30 29.98 1015 9 14 0.00 0.00
8:59 pm 20:59 Cloudy 73 22.8 70 21.1 90 90 ENE 15 24 29.97 1015 10 16 0.00 0.00
9:59 pm 21:59 Cloudy 73 22.8 68 20 84 84 NE 15 24 30.00 1016 10 16 0.00 0.00
10:34 pm 22:34 Cloudy with Light Rain 74 23.3 68 20 82 82 NE 16 26 30.00 1016 4 6 0.00 0.00
10:59 pm 22:59 Cloudy with Light Rain 73 22.8 69 20.6 87 87 NE 12 19 30.00 1016 5 8 0.00 0.00
11:02 pm 23:02 Cloudy with Light Rain 73 22.8 69 20.6 87 87 ENE 13 20 30.00 1016 7 11 0.00 0.00
11:27 pm 23:27 Cloudy with Light Rain 73 22.8 69 20.6 87 87 ENE 13 20 29.99 1016 2 3 0.02 0.51
11:34 pm 23:34 Cloudy with Light Rain 73 22.8 69 20.6 87 87 ENE 13 20 29.99 1016 2 2 0.03 0.76
11:47 pm 23:47 Cloudy with Light Rain 73 22.8 69 20.6 87 87 ENE 14 22 29.99 1016 2 3 0.06 1.52
11:57 pm 23:57 Cloudy with Light Rain 73 23 70 21 89 89 ENE 13 20 29.99 1016 3 4 0.07 1.78
11:59 pm 23:59 Cloudy with Light Rain 70 21.1 68 20 93 93 ENE 14 22 29.99 1016 3 4 0.07 1.78

Powered by AerisWeather